Date String (YYYY-MM-DD hh:mm:ss) UTC,Instrument flags,Ambient pressure (hPa),Sample flow (lpm),Bypass flow (lpm),Sample temperature (°C),Ambient temperature (°C),ASC tube jacket temperature (°C),LED temperature (°C),Box temperature (°C),Sample RH (%),Span deviation,Mass concentration (μg/m³),Mass concentration (μg/m³),Mass concentration (μg/m³)
DateTimeUTC,F1_M11,P_M11,Q1_M11,Q2_M11,T1_M11,T2_M11,T3_M11,T4_M11,T5_M11,U1_M11,ZSPAN_M11,X2_M11,X0_M11,X1_M11
2023-02-02 23:00:00,,0831.9,4.95,0.00,28.6,27.3,00.0,37.4,30.4,09.5,0000.0,0006.95,0013.06,0006.19
2023-02-02 23:01:00,,0831.9,5.00,0.00,28.6,27.3,00.0,37.4,30.4,09.5,0000.0,0006.99,0013.16,0006.21
2023-02-02 23:02:00,,0832.0,5.03,0.00,28.6,27.3,00.0,37.4,30.4,09.5,0000.0,0006.99,0012.73,0006.22
2023-02-02 23:03:00,,0832.1,4.95,0.00,28.6,27.3,00.0,37.4,30.4,09.5,0000.0,0006.95,0012.52,0006.20
2023-02-02 23:04:00,,0832.1,5.04,0.00,28.6,27.3,00.0,37.4,30.4,09.5,0000.0,0006.93,0012.31,0006.15
2023-02-02 23:05:00,,0832.1,4.96,0.00,28.6,27.3,00.0,37.4,30.4,09.5,0000.0,0006.85,0011.87,0006.09
2023-02-02 23:06:00,,0832.0,5.04,0.00,28.6,27.3,00.0,37.4,30.4,09.5,0000.0,0006.82,0012.65,0006.03
2023-02-02 23:07:00,,0832.1,4.97,0.00,28.6,27.3,00.0,37.4,30.4,09.6,0000.0,0006.79,0012.51,0005.99
2023-02-02 23:08:00,,0832.1,4.99,0.00,28.6,27.3,00.0,37.4,30.4,09.5,0000.0,0006.81,0012.35,0006.00
2023-02-02 23:09:00,,0832.1,5.00,0.00,28.6,27.3,00.0,37.4,30.4,09.5,0000.0,0006.86,0012.57,0006.02
2023-02-02 23:10:00,,0832.1,4.96,0.00,28.6,27.3,00.0,37.4,30.4,09.4,0000.0,0006.94,0012.63,0006.10
2023-02-02 23:11:00,,0832.1,5.04,0.00,28.6,27.3,00.0,37.4,30.4,09.4,0000.0,0007.10,0012.73,0006.21
2023-02-02 23:12:00,,0832.1,4.97,0.00,28.6,27.3,00.0,37.4,30.4,09.3,0000.0,0007.21,0012.77,0006.31
2023-02-02 23:13:00,,0832.1,5.02,0.00,28.6,27.3,00.0,37.4,30.4,09.3,0000.0,0007.30,0012.80,0006.40
2023-02-02 23:14:00,,0832.1,5.00,0.00,28.6,27.3,00.0,37.4,30.4,09.3,0000.0,0007.38,0012.86,0006.47
2023-02-02 23:15:00,,0832.1,4.98,0.00,28.6,27.3,00.0,37.4,30.4,09.2,0000.0,0007.44,0012.98,0006.54
2023-02-02 23:16:00,,0832.1,5.03,0.00,28.6,27.3,00.0,37.4,30.4,09.2,0000.0,0007.52,0013.08,0006.62
2023-02-02 23:17:00,,0832.1,4.94,0.00,28.6,27.3,00.0,37.4,30.4,09.3,0000.0,0007.59,0012.36,0006.69
2023-02-02 23:18:00,,0832.1,5.04,0.00,28.6,27.3,00.0,37.4,30.4,09.3,0000.0,0007.61,0012.14,0006.75
2023-02-02 23:19:00,,0832.2,5.02,0.00,28.6,27.3,00.0,37.4,30.4,09.3,0000.0,0007.69,0012.41,0006.79
2023-02-02 23:20:00,,0832.1,4.97,0.00,28.6,27.3,00.0,37.4,30.4,09.3,0000.0,0007.74,0012.43,0006.84
2023-02-02 23:21:00,,0832.1,5.03,0.00,28.6,27.3,00.0,37.4,30.4,09.2,0000.0,0007.82,0012.73,0006.92
2023-02-02 23:22:00,,0832.1,4.97,0.00,28.6,27.3,00.0,37.4,30.4,09.2,0000.0,0007.88,0012.87,0007.02
2023-02-02 23:23:00,,0832.1,5.02,0.00,28.6,27.3,00.0,37.4,30.4,09.1,0000.0,0007.97,0013.10,0007.13
2023-02-02 23:24:00,,0832.1,5.02,0.00,28.6,27.3,00.0,37.4,30.4,09.1,0000.0,0008.09,0013.31,0007.25
2023-02-02 23:25:00,,0832.2,4.97,0.00,28.6,27.3,00.0,37.4,30.4,09.1,0000.0,0008.21,0013.53,0007.37
2023-02-02 23:26:00,,0832.2,5.03,0.00,28.6,27.2,00.0,37.4,30.4,09.1,0000.0,0008.34,0013.87,0007.50
2023-02-02 23:27:00,,0832.2,4.97,0.00,28.6,27.2,00.0,37.4,30.4,09.1,0000.0,0008.43,0015.33,0007.61
2023-02-02 23:28:00,,0832.1,5.04,0.00,28.6,27.2,00.0,37.4,30.4,09.0,0000.0,0008.53,0015.42,0007.73
2023-02-02 23:29:00,,0832.1,4.97,0.00,28.6,27.2,00.0,37.4,30.3,09.0,0000.0,0008.70,0015.71,0007.87
2023-02-02 23:30:00,,0832.1,5.02,0.00,28.6,27.2,00.0,37.4,30.4,09.0,0000.0,0008.82,0015.72,0008.00
2023-02-02 23:31:00,,0832.1,5.00,0.00,28.6,27.2,00.0,37.4,30.3,09.0,0000.0,0008.92,0015.69,0008.10
2023-02-02 23:32:00,,0832.1,4.98,0.00,28.6,27.2,00.0,37.4,30.3,09.0,0000.0,0008.97,0016.24,0008.16
2023-02-02 23:33:00,,0832.2,5.04,0.00,28.5,27.2,00.0,37.4,30.3,09.1,0000.0,0008.98,0016.65,0008.20
2023-02-02 23:34:00,,0832.3,4.98,0.00,28.5,27.2,00.0,37.4,30.3,09.0,0000.0,0009.03,0017.46,0008.22
2023-02-02 23:35:00,,0832.2,5.04,0.00,28.5,27.1,00.0,37.4,30.3,09.0,0000.0,0009.08,0017.85,0008.25
2023-02-02 23:36:00,,0832.2,4.98,0.00,28.5,27.1,00.0,37.4,30.3,09.0,0000.0,0009.09,0018.09,0008.25
2023-02-02 23:37:00,,0832.2,4.98,0.00,28.5,27.1,00.0,37.4,30.3,08.9,0000.0,0009.08,0017.98,0008.24
2023-02-02 23:38:00,,0832.2,5.04,0.00,28.5,27.1,00.0,37.4,30.2,08.9,0000.0,0009.08,0016.63,0008.24
2023-02-02 23:39:00,,0832.3,4.97,0.00,28.5,27.1,00.0,37.4,30.2,08.9,0000.0,0009.08,0016.71,0008.22
2023-02-02 23:40:00,,0832.3,5.05,0.00,28.5,27.1,00.0,37.4,30.2,08.9,0000.0,0009.05,0016.88,0008.20
2023-02-02 23:41:00,,0832.3,4.98,0.00,28.5,27.1,00.0,37.4,30.2,08.9,0000.0,0008.97,0016.74,0008.16
2023-02-02 23:42:00,,0832.3,4.97,0.00,28.5,27.0,00.0,37.3,30.2,08.9,0000.0,0008.94,0016.63,0008.14
2023-02-02 23:43:00,,0832.3,5.04,0.00,28.5,27.0,00.0,37.3,30.2,08.9,0000.0,0008.94,0015.92,0008.14
2023-02-02 23:44:00,,0832.3,4.98,0.00,28.5,27.0,00.0,37.3,30.2,08.9,0000.0,0008.98,0015.99,0008.14
2023-02-02 23:45:00,,0832.3,4.98,0.00,28.5,27.0,00.0,37.3,30.2,08.9,0000.0,0008.98,0015.41,0008.12
2023-02-02 23:46:00,,0832.3,5.06,0.00,28.5,27.0,00.0,37.3,30.2,08.9,0000.0,0008.95,0015.02,0008.14
2023-02-02 23:47:00,,0832.3,4.98,0.00,28.5,27.0,00.0,37.3,30.2,08.9,0000.0,0008.95,0014.99,0008.16
2023-02-02 23:48:00,,0832.3,4.98,0.00,28.4,27.0,00.0,37.3,30.2,08.9,0000.0,0008.97,0015.20,0008.18
2023-02-02 23:49:00,,0832.3,5.05,0.00,28.4,27.0,00.0,37.3,30.2,08.9,0000.0,0009.04,0015.19,0008.21
2023-02-02 23:50:00,,0832.3,4.98,0.00,28.4,27.0,00.0,37.3,30.2,08.9,0000.0,0009.08,0015.17,0008.26
2023-02-02 23:51:00,,0832.3,4.98,0.00,28.4,26.9,00.0,37.3,30.2,08.9,0000.0,0009.15,0015.67,0008.33
2023-02-02 23:52:00,,0832.3,5.03,0.00,28.4,26.9,00.0,37.3,30.2,08.9,0000.0,0009.31,0015.93,0008.42
2023-02-02 23:53:00,,0832.3,4.99,0.00,28.4,27.0,00.0,37.3,30.2,08.9,0000.0,0009.43,0016.38,0008.52
2023-02-02 23:54:00,,0832.3,4.99,0.00,28.4,27.0,00.0,37.3,30.2,08.9,0000.0,0009.53,0017.39,0008.61
2023-02-02 23:55:00,,0832.3,5.04,0.00,28.4,27.0,00.0,37.3,30.2,08.9,0000.0,0009.60,0017.62,0008.69
2023-02-02 23:56:00,,0832.3,4.99,0.00,28.4,27.0,00.0,37.3,30.2,08.9,0000.0,0009.74,0017.57,0008.80
2023-02-02 23:57:00,,0832.4,4.98,0.00,28.4,26.9,00.0,37.3,30.2,08.9,0000.0,0009.90,0018.93,0008.89
2023-02-02 23:58:00,,0832.3,5.04,0.00,28.4,26.9,00.0,37.3,30.1,08.8,0000.0,0009.98,0019.67,0008.96
2023-02-02 23:59:00,,0832.3,4.97,0.00,28.4,26.9,00.0,37.3,30.2,08.9,0000.0,0010.06,0020.04,0009.05
